DW8340 Weather Reports


time (UTC)temp
F
wind
direction
speed
knots
gust
knots
rain 1hr
in
rain 24hr
in
rain mn
in
humidity
%
barometer
mb
20260506123048 68 192 1.7 6.1 0.00 0.00 0.00 69 1009.9
20260506122540 68 272 0.0 6.1 0.00 0.00 0.00 70 1009.9
20260506122039 68 261 0.9 6.1 0.00 0.00 0.00 70 1009.9
20260506121601 67 262 2.6 6.1 0.00 0.00 0.00 70 1009.9
20260506121040 67 260 0.0 3.5 0.00 0.00 0.00 71 1010.1
20260506120540 67 287 0.9 3.5 0.00 0.00 0.00 71 1010.2
20260506120044 67 265 0.9 4.3 0.00 0.00 0.00 72 1010.2
20260506115540 67 275 0.9 4.3 0.00 0.00 0.00 72 1010.3
20260506115039 67 0 0.9 3.5 0.00 0.00 0.00 73 1010.2
20260506114554 66 273 0.9 2.6 0.00 0.00 0.00 74 1010.3
20260506114040 66 202 0.9 4.3 0.00 0.00 0.00 74 1010.3
20260506113540 66 241 0.9 4.3 0.00 0.00 0.00 74 1010.3
20260506113054 65 250 0.9 4.3 0.00 0.00 0.00 75 1010.3
20260506112540 65 282 0.0 2.6 0.00 0.00 0.00 76 1010.3
20260506112040 65 235 0.9 2.6 0.00 0.00 0.00 76 1010.2
20260506111606 65 0 0.0 2.6 0.00 0.00 0.00 76 1010.1
20260506111040 64 0 0.0 2.6 0.00 0.00 0.00 76 1010.0
20260506110540 64 0 0.9 2.6 0.00 0.00 0.00 76 1010.0
20260506110054 64 213 0.0 1.7 0.00 0.00 0.00 76 1010.0
20260506105540 64 0 0.0 4.3 0.00 0.00 0.00 76 1010.0
20260506105040 64 0 0.0 4.3 0.00 0.00 0.00 76 1010.1
20260506104548 64 151 0.9 2.6 0.00 0.00 0.00 76 1010.2
20260506104039 64 0 0.0 2.6 0.00 0.00 0.00 76 1010.2
20260506103540 64 281 0.0 2.6 0.00 0.00 0.00 76 1010.1
20260506103051 64 219 0.0 2.6 0.00 0.00 0.00 76 1010.0
20260506102540 64 0 0.0 2.6 0.00 0.00 0.00 76 1010.0
20260506102044 64 238 0.0 2.6 0.00 0.00 0.00 76 1010.0
20260506101544 64 163 0.0 2.6 0.00 0.00 0.00 76 1009.8
20260506101040 64 0 0.0 4.3 0.00 0.00 0.00 75 1009.9
20260506100541 64 159 0.0 4.3 0.00 0.00 0.00 75 1009.7
20260506100051 64 0 0.0 2.6 0.00 0.00 0.00 75 1009.8
20260506095541 64 0 0.0 2.6 0.00 0.00 0.00 75 1009.9
20260506095042 64 19 0.9 2.6 0.00 0.00 0.00 75 1009.9
20260506094555 64 88 0.0 1.7 0.00 0.00 0.00 75 1009.8
20260506094040 64 257 0.0 1.7 0.00 0.00 0.00 74 1009.7
20260506093542 64 0 0.0 1.7 0.00 0.00 0.00 74 1009.7
20260506093054 64 266 0.0 1.7 0.00 0.00 0.00 74 1009.8
20260506092541 65 0 0.0 1.7 0.00 0.00 0.00 74 1009.8
20260506092044 65 0 0.0 1.7 0.00 0.00 0.00 74 1009.9
20260506091542 65 298 0.0 1.7 0.00 0.00 0.00 73 1009.9
20260506091040 65 0 0.0 1.7 0.00 0.00 0.00 73 1010.0
20260506090540 65 0 0.0 1.7 0.00 0.00 0.00 73 1009.9
20260506090051 65 0 0.0 1.7 0.00 0.00 0.00 73 1010.0
20260506085540 65 246 0.0 1.7 0.00 0.00 0.00 73 1010.1
20260506085040 65 0 0.0 1.7 0.00 0.00 0.00 72 1010.0
20260506084549 65 0 0.0 2.6 0.00 0.00 0.00 72 1010.1
20260506084041 65 267 0.0 2.6 0.00 0.00 0.00 72 1010.1
20260506083541 65 202 0.9 3.5 0.00 0.00 0.00 72 1010.1
20260506083107 66 217 0.9 4.3 0.00 0.00 0.00 72 1010.1
20260506082540 66 242 0.0 4.3 0.00 0.00 0.00 72 1010.1
20260506082040 66 244 0.9 4.3 0.00 0.00 0.00 71 1010.1
20260506081550 66 0 0.0 4.3 0.00 0.00 0.00 71 1010.1
20260506081041 66 187 0.0 3.5 0.00 0.00 0.00 70 1010.1
20260506080543 66 0 0.0 3.5 0.00 0.00 0.00 70 1010.1
20260506073053 67 232 0.0 3.5 0.00 0.00 0.00 68 1010.1
20260506072541 67 5 0.0 2.6 0.00 0.00 0.00 68 1010.1
20260506072041 67 109 0.0 2.6 0.00 0.00 0.00 68 1010.0
20260506071554 67 171 0.0 1.7 0.00 0.00 0.00 68 1010.4
20260506071040 67 0 0.0 1.7 0.00 0.00 0.00 67 1010.4
20260506070540 67 0 0.0 2.6 0.00 0.00 0.00 67 1010.2
20260506070110 67 0 0.0 2.6 0.00 0.00 0.00 67 1010.3
20260506062041 68 277 0.0 2.6 0.00 0.00 0.00 65 1010.4
20260506061600 68 0 0.0 3.5 0.00 0.00 0.00 65 1010.2
20260506061042 68 0 0.0 5.2 0.00 0.00 0.00 65 1010.3
20260506060540 68 167 0.9 5.2 0.00 0.00 0.00 65 1010.2
20260506051040 69 212 0.0 3.5 0.00 0.00 0.00 62 1010.9
20260506050540 69 0 0.0 3.5 0.00 0.00 0.00 61 1011.0
20260506045040 69 0 0.9 3.5 0.00 0.00 0.00 60 1010.9
20260506044556 69 0 0.0 4.3 0.00 0.00 0.00 60 1010.9
20260506044039 70 0 0.0 4.3 0.00 0.00 0.00 60 1010.9
20260506043542 70 229 0.9 2.6 0.00 0.00 0.00 60 1010.9
20260506043058 70 241 0.9 2.6 0.00 0.00 0.00 59 1010.9
20260506042541 70 315 0.0 3.5 0.00 0.00 0.00 59 1010.9
20260506042040 70 0 0.9 3.5 0.00 0.00 0.00 59 1010.8
20260506041543 70 261 0.9 3.5 0.00 0.00 0.00 59 1010.8
20260506041040 70 209 0.9 2.6 0.00 0.00 0.00 58 1010.9
20260506040540 70 0 0.0 2.6 0.00 0.00 0.00 58 1010.7
20260506040052 70 257 0.0 3.5 0.00 0.00 0.00 57 1010.8
20260506035542 70 0 0.9 3.5 0.00 0.00 0.00 57 1010.8
20260506035040 70 257 0.9 2.6 0.00 0.00 0.00 57 1010.7
20260506034551 70 261 0.9 3.5 0.00 0.00 0.00 57 1010.7
20260506034040 70 0 0.9 3.5 0.00 0.00 0.00 57 1010.8
20260506033539 70 239 0.9 3.5 0.00 0.00 0.00 56 1010.6
20260506033045 70 249 0.9 3.5 0.00 0.00 0.00 56 1010.7
20260506032541 70 250 0.9 6.1 0.00 0.00 0.00 56 1010.8
20260506032040 70 204 0.9 6.1 0.00 0.00 0.00 56 1010.7
20260506031548 70 237 0.9 3.5 0.00 0.00 0.00 56 1010.6
20260506031041 71 248 0.9 4.3 0.00 0.00 0.00 56 1010.5
20260506030541 71 234 0.9 4.3 0.00 0.00 0.00 56 1010.4
20260506030053 71 263 0.9 4.3 0.00 0.00 0.00 56 1010.6
20260506025540 71 226 0.9 3.5 0.00 0.00 0.00 55 1010.5
20260506025041 71 279 0.9 3.5 0.00 0.00 0.00 55 1010.5
20260506024548 71 179 0.0 2.6 0.00 0.00 0.00 55 1010.5
20260506024041 71 265 0.0 2.6 0.00 0.00 0.00 54 1010.6
20260506023540 72 0 0.0 3.5 0.00 0.00 0.00 54 1010.6
20260506023048 72 0 0.0 3.5 0.00 0.00 0.00 54 1010.6
20260506022540 72 259 0.0 3.5 0.00 0.00 0.00 53 1010.6
20260506022040 72 0 0.9 3.5 0.00 0.00 0.00 53 1010.6
20260506021545 72 0 0.0 2.6 0.00 0.00 0.00 52 1010.5
20260506021042 73 295 0.0 7.0 0.00 0.00 0.00 52 1010.5
20260506020539 73 0 0.9 7.0 0.00 0.00 0.00 52 1010.5
20260506020053 73 121 0.0 5.2 0.00 0.00 0.00 51 1010.5
20260506015543 73 276 0.9 4.3 0.00 0.00 0.00 51 1010.6
20260506015041 74 53 0.9 5.2 0.00 0.00 0.00 50 1010.4
20260506014608 74 256 0.9 5.2 0.00 0.00 0.00 49 1010.2
20260506014040 74 182 0.9 5.2 0.00 0.00 0.00 48 1010.4
20260506013541 75 253 1.7 5.2 0.00 0.00 0.00 48 1010.3
20260506013050 75 244 0.9 3.5 0.00 0.00 0.00 46 1010.1
20260506012541 76 221 0.0 2.6 0.00 0.00 0.00 45 1010.0
20260506012053 77 0 0.0 2.6 0.00 0.00 0.00 44 1010.0
20260506011613 77 219 0.0 2.6 0.00 0.00 0.00 43 1009.9
20260506011040 77 0 0.0 5.2 0.00 0.00 0.00 42 1009.9
20260506010542 78 0 0.9 5.2 0.00 0.00 0.00 41 1009.7
20260506010053 78 88 0.0 5.2 0.00 0.00 0.00 40 1009.6
20260506005540 78 0 0.9 6.1 0.00 0.00 0.00 38 1009.4
20260506005039 78 278 1.7 6.1 0.00 0.00 0.00 38 1009.3
20260506004559 78 287 1.7 5.2 0.00 0.00 0.00 38 1009.4
20260506004041 79 246 0.9 4.3 0.00 0.00 0.00 38 1009.3
20260506003542 79 0 0.9 6.1 0.00 0.00 0.00 37 1009.3
20260506003053 79 284 0.9 6.1 0.00 0.00 0.00 37 1009.2
20260506002541 79 0 1.7 5.2 0.00 0.00 0.00 36 1009.1
20260506002041 80 303 0.9 3.5 0.00 0.00 0.00 35 1009.1
20260506001556 80 217 0.9 5.2 0.00 0.00 0.00 33 1009.1
20260506001041 80 0 1.7 5.2 0.00 0.00 0.00 32 1009.0
20260506000541 80 241 1.7 6.1 0.00 0.00 0.00 32 1008.9
20260506000116 80 271 1.7 6.1 0.00 0.00 0.00 31 1009.0
20260505235542 80 167 2.6 6.1 0.00 0.00 0.00 31 1008.9
20260505235040 80 238 0.9 3.5 0.00 0.00 0.00 30 1009.0
20260505234553 81 260 0.9 4.3 0.00 0.00 0.00 30 1008.8
20260505234041 81 214 0.9 4.3 0.00 0.00 0.00 30 1008.8
20260505233540 81 219 0.9 11.3 0.00 0.00 0.00 29 1008.7
20260505233059 81 310 1.7 11.3 0.00 0.00 0.00 29 1008.6
20260505232540 81 258 2.6 9.6 0.00 0.00 0.00 29 1008.6
20260505232044 81 241 1.7 8.7 0.00 0.00 0.00 28 1008.6
20260505231612 82 211 3.5 8.7 0.00 0.00 0.00 28 1008.5
20260505231042 82 281 1.7 8.7 0.00 0.00 0.00 28 1008.2
20260505230540 82 330 2.6 8.7 0.00 0.00 0.00 27 1008.3
20260505230105 82 283 2.6 8.7 0.00 0.00 0.00 27 1008.3
20260505225544 83 267 3.5 7.0 0.00 0.00 0.00 26 1008.2
20260505225044 83 259 2.6 10.4 0.00 0.00 0.00 26 1008.1
20260505224551 83 269 1.7 13.0 0.00 0.00 0.00 27 1008.0
20260505224040 83 273 3.5 13.0 0.00 0.00 0.00 26 1007.9
20260505223540 83 250 2.6 10.4 0.00 0.00 0.00 27 1008.0
20260505223056 83 234 2.6 7.8 0.00 0.00 0.00 27 1007.9
20260505222540 83 273 1.7 7.8 0.00 0.00 0.00 27 1007.7
20260505222040 83 284 2.6 7.8 0.00 0.00 0.00 27 1007.9
20260505221556 83 249 2.6 7.8 0.00 0.00 0.00 27 1007.9
20260505221040 83 336 2.6 8.7 0.00 0.00 0.00 27 1007.9
20260505220540 83 287 1.7 8.7 0.00 0.00 0.00 27 1008.0
20260505220049 84 302 1.7 7.8 0.00 0.00 0.00 27 1007.8
20260505215540 84 290 1.7 7.0 0.00 0.00 0.00 27 1007.8
20260505215040 84 248 2.6 7.0 0.00 0.00 0.00 27 1007.6
20260505214545 84 237 2.6 9.6 0.00 0.00 0.00 27 1007.5
20260505214042 85 240 2.6 9.6 0.00 0.00 0.00 27 1007.4
20260505213540 85 259 2.6 9.6 0.00 0.00 0.00 28 1007.6
20260505213044 85 282 1.7 9.6 0.00 0.00 0.00 28 1007.5
20260505212539 85 238 2.6 7.8 0.00 0.00 0.00 27 1007.6
20260505212041 85 196 2.6 7.8 0.00 0.00 0.00 27 1007.6
20260505211543 85 261 4.3 7.8 0.00 0.00 0.00 26 1007.4
20260505211041 85 300 2.6 7.0 0.00 0.00 0.00 27 1007.3
20260505210540 85 267 1.7 7.0 0.00 0.00 0.00 27 1007.4
20260505210050 85 183 2.6 7.0 0.00 0.00 0.00 28 1007.5
20260505205543 85 211 1.7 18.2 0.00 0.00 0.00 28 1007.4
20260505205041 85 202 1.7 18.2 0.00 0.00 0.00 28 1007.5
20260505204552 85 265 2.6 18.2 0.00 0.00 0.00 28 1007.3
20260505204040 85 218 1.7 13.9 0.00 0.00 0.00 29 1007.5
20260505203541 85 259 3.5 13.9 0.00 0.00 0.00 28 1007.5
20260505203056 85 307 2.6 8.7 0.00 0.00 0.00 28 1007.6
20260505202540 84 352 3.5 10.4 0.00 0.00 0.00 28 1007.6
20260505202040 84 227 2.6 13.0 0.00 0.00 0.00 30 1007.6
20260505201549 84 285 2.6 13.0 0.00 0.00 0.00 29 1007.5
20260505201040 84 204 2.6 8.7 0.00 0.00 0.00 29 1007.6
20260505200541 83 261 1.7 5.2 0.00 0.00 0.00 30 1007.7
20260505200047 83 192 0.9 6.1 0.00 0.00 0.00 36 1007.8
20260505195541 83 142 0.9 6.1 0.00 0.00 0.00 39 1007.9
20260505195042 83 79 2.6 6.1 0.00 0.00 0.00 37 1007.9
20260505194603 83 284 1.7 4.3 0.00 0.00 0.00 39 1008.1
20260505194040 83 273 0.9 6.1 0.00 0.00 0.00 39 1008.0
20260505193541 84 341 0.9 8.7 0.00 0.00 0.00 38 1008.2
20260505193048 84 26 1.7 8.7 0.00 0.00 0.00 39 1008.1
20260505192540 84 171 0.9 3.5 0.00 0.00 0.00 40 1008.2
20260505192040 84 173 0.9 7.0 0.00 0.00 0.00 40 1008.5
20260505191600 84 257 1.7 10.4 0.00 0.00 0.00 39 1008.4
20260505191040 84 229 0.9 10.4 0.00 0.00 0.00 40 1008.5
20260505190541 84 274 1.7 5.2 0.00 0.00 0.00 34 1008.3
20260505190047 84 92 0.0 5.2 0.00 0.00 0.00 40 1008.5
20260505185540 84 205 0.9 5.2 0.00 0.00 0.00 40 1008.8
20260505185040 84 99 1.7 7.0 0.00 0.00 0.00 39 1008.8
20260505184544 85 207 0.0 7.0 0.00 0.00 0.00 39 1009.1
20260505184040 85 152 1.7 7.8 0.00 0.00 0.00 37 1009.2
20260505183539 86 54 1.7 8.7 0.00 0.00 0.00 36 1009.2
20260505183053 86 213 0.9 8.7 0.00 0.00 0.00 36 1009.1
20260505182540 86 345 0.9 8.7 0.00 0.00 0.00 37 1009.0
20260505182042 87 57 1.7 7.8 0.00 0.00 0.00 36 1009.1
20260505181548 87 69 1.7 7.0 0.00 0.00 0.00 35 1009.1
20260505181040 87 0 1.7 7.0 0.00 0.00 0.00 34 1009.2
20260505180540 88 80 0.9 5.2 0.00 0.00 0.00 34 1009.3
20260505180054 87 286 1.7 6.1 0.00 0.00 0.00 33 1009.2
20260505175543 87 214 0.9 7.8 0.00 0.00 0.00 34 1009.1
20260505175040 87 57 0.9 7.8 0.00 0.00 0.00 34 1009.3
20260505174549 87 248 0.9 7.0 0.00 0.00 0.00 34 1009.3
20260505174040 87 0 1.7 7.0 0.00 0.00 0.00 34 1009.4
20260505173540 88 244 0.9 4.3 0.00 0.00 0.00 34 1009.4
20260505173111 87 254 1.7 7.0 0.00 0.00 0.00 34 1009.5
20260505172539 88 210 1.7 7.8 0.00 0.00 0.00 33 1009.7
20260505172039 88 287 0.9 7.8 0.00 0.00 0.00 33 1009.5
20260505171613 88 200 0.9 3.5 0.00 0.00 0.00 34 1009.6
20260505171040 87 0 0.9 4.3 0.00 0.00 0.00 34 1009.6
20260505170540 87 0 0.9 4.3 0.00 0.00 0.00 35 1009.7
20260505170051 87 19 0.9 3.5 0.00 0.00 0.00 34 1009.6
20260505165540 87 215 0.9 2.6 0.00 0.00 0.00 35 1009.7
20260505165039 86 244 0.0 7.0 0.00 0.00 0.00 35 1009.8
20260505164555 86 0 0.9 7.0 0.00 0.00 0.00 35 1009.9
20260505164040 86 240 0.9 3.5 0.00 0.00 0.00 36 1010.0
20260505163540 86 265 0.9 6.1 0.00 0.00 0.00 35 1010.0
20260505163046 86 255 0.0 6.1 0.00 0.00 0.00 36 1010.1
20260505162540 85 0 1.7 6.1 0.00 0.00 0.00 36 1010.1
20260505162041 86 209 0.9 6.1 0.00 0.00 0.00 36 1010.3
20260505161553 85 216 0.9 4.3 0.00 0.00 0.00 36 1010.4
20260505161040 85 306 0.9 4.3 0.00 0.00 0.00 37 1010.6
20260505160547 85 199 0.9 4.3 0.00 0.00 0.00 36 1010.4
20260505153043 83 259 0.9 3.5 0.00 0.00 0.00 39 1011.0
20260505152540 83 211 0.9 3.5 0.00 0.00 0.00 40 1010.9
20260505152040 82 286 0.9 4.3 0.00 0.00 0.00 39 1011.0
20260505151549 82 197 0.9 4.3 0.00 0.00 0.00 40 1010.8
20260505151043 82 187 0.0 4.3 0.00 0.00 0.00 40 1011.0
20260505150540 81 0 0.9 3.5 0.00 0.00 0.00 40 1010.9
20260505150106 81 240 0.0 4.3 0.00 0.00 0.00 41 1011.1
20260505140541 77 317 0.9 3.5 0.00 0.00 0.00 46 1011.4
20260505125039 68 294 0.0 3.5 0.00 0.00 0.00 61 1011.1
20260505124555 67 76 0.0 3.5 0.00 0.00 0.00 63 1011.1
20260505124040 66 190 0.0 1.7 0.00 0.00 0.00 65 1011.1
20260505123539 65 201 0.0 1.7 0.00 0.00 0.00 67 1011.0
20260505123058 64 0 0.0 2.6 0.00 0.00 0.00 68 1011.3